| time (UTC) | temp F | wind direction | speed MPH | gust MPH | rain 1hr in | rain 24hr in | rain mn in | humidity % | barometer mb |
| 20260506015514 | 64 | 24 | 1.0 | 3.0 | 0.00 | 0.00 | 0.00 | 70 | 1003.2 |
| 20260506015103 | 64 | 34 | 0.0 | 2.0 | 0.00 | 0.00 | 0.00 | 70 | 1003.1 |
| 20260506014518 | 64 | 355 | 0.0 | 0.0 | 0.00 | 0.00 | 0.00 | 69 | 1003.1 |
| 20260506014004 | 65 | 355 | 0.0 | 3.0 | 0.00 | 0.00 | 0.00 | 69 | 1003.1 |
| 20260506013555 | 65 | 355 | 1.0 | 4.0 | 0.00 | 0.00 | 0.00 | 69 | 1003.1 |
| 20260506013026 | 65 | 34 | 2.0 | 4.0 | 0.00 | 0.00 | 0.00 | 69 | 1003.1 |
| 20260506012514 | 65 | 70 | 1.0 | 4.0 | 0.00 | 0.00 | 0.00 | 68 | 1003.1 |
| 20260506012002 | 65 | 360 | 2.0 | 5.0 | 0.00 | 0.00 | 0.00 | 69 | 1003.1 |
| 20260506011530 | 65 | 44 | 2.0 | 5.0 | 0.00 | 0.00 | 0.00 | 69 | 1003.1 |
| 20260506011015 | 65 | 30 | 3.0 | 5.0 | 0.00 | 0.00 | 0.00 | 69 | 1003.2 |
| 20260506010502 | 65 | 342 | 2.0 | 3.0 | 0.00 | 0.00 | 0.00 | 69 | 1003.2 |
| 20260506010024 | 64 | 301 | 1.0 | 5.0 | 0.00 | 0.00 | 0.00 | 68 | 1003.2 |
| 20260506005508 | 64 | 17 | 1.0 | 6.0 | 0.00 | 0.00 | 0.00 | 69 | 1003.2 |
| 20260506005054 | 64 | 346 | 2.0 | 5.0 | 0.00 | 0.00 | 0.00 | 72 | 1003.1 |
| 20260506004515 | 65 | 59 | 3.0 | 6.0 | 0.00 | 0.00 | 0.00 | 68 | 1003.1 |
| 20260506004004 | 65 | 44 | 2.0 | 6.0 | 0.00 | 0.00 | 0.00 | 69 | 1003.2 |
| 20260506003557 | 65 | 10 | 0.0 | 3.0 | 0.00 | 0.00 | 0.00 | 68 | 1003.1 |
| 20260506003015 | 64 | 34 | 0.0 | 1.0 | 0.00 | 0.00 | 0.00 | 69 | 1003.1 |
| 20260506002503 | 64 | 5 | 0.0 | 0.0 | 0.00 | 0.00 | 0.00 | 70 | 1003.1 |
| 20260506002052 | 64 | 5 | 0.0 | 0.0 | 0.00 | 0.00 | 0.00 | 72 | 1003.2 |
| 20260506001509 | 64 | 317 | 0.0 | 0.0 | 0.00 | 0.00 | 0.00 | 70 | 1003.2 |
| 20260506001100 | 65 | 42 | 0.0 | 1.0 | 0.00 | 0.00 | 0.00 | 69 | 1003.3 |
| 20260506000547 | 65 | 44 | 0.0 | 4.0 | 0.00 | 0.00 | 0.00 | 70 | 1003.4 |
| 20260506000014 | 65 | 30 | 2.0 | 4.0 | 0.00 | 0.00 | 0.00 | 69 | 1003.3 |
| 20260505235503 | 65 | 29 | 1.0 | 3.0 | 0.00 | 0.00 | 0.00 | 70 | 1003.4 |
| 20260505235053 | 65 | 63 | 1.0 | 4.0 | 0.00 | 0.00 | 0.00 | 69 | 1003.4 |
| 20260505234517 | 65 | 296 | 1.0 | 4.0 | 0.00 | 0.00 | 0.00 | 70 | 1003.4 |
| 20260505234056 | 65 | 294 | 1.0 | 4.0 | 0.00 | 0.00 | 0.00 | 69 | 1003.5 |
| 20260505233543 | 64 | 5 | 0.0 | 3.0 | 0.00 | 0.00 | 0.00 | 69 | 1003.5 |
| 20260505233101 | 64 | 355 | 0.0 | 4.0 | 0.00 | 0.00 | 0.00 | 69 | 1003.6 |
| 20260505232548 | 64 | 44 | 1.0 | 5.0 | 0.00 | 0.00 | 0.00 | 69 | 1003.7 |
| 20260505232041 | 64 | 279 | 1.0 | 5.0 | 0.00 | 0.00 | 0.00 | 70 | 1003.6 |
| 20260505231608 | 64 | 360 | 0.0 | 6.0 | 0.00 | 0.00 | 0.00 | 70 | 1003.7 |
| 20260505231047 | 64 | 334 | 3.0 | 6.0 | 0.00 | 0.00 | 0.00 | 72 | 1003.6 |
| 20260505230535 | 63 | 46 | 3.0 | 6.0 | 0.00 | 0.00 | 0.00 | 72 | 1003.7 |
| 20260505230004 | 63 | 307 | 1.0 | 5.0 | 0.00 | 0.00 | 0.00 | 71 | 1003.7 |
| 20260505225554 | 63 | 319 | 2.0 | 6.0 | 0.00 | 0.00 | 0.00 | 71 | 1003.8 |
| 20260505225043 | 63 | 9 | 2.0 | 6.0 | 0.00 | 0.00 | 0.00 | 71 | 1003.8 |
| 20260505224503 | 63 | 296 | 3.0 | 5.0 | 0.00 | 0.00 | 0.00 | 72 | 1003.8 |
| 20260505224054 | 63 | 77 | 1.0 | 6.0 | 0.00 | 0.00 | 0.00 | 73 | 1003.8 |
| 20260505223542 | 63 | 45 | 3.0 | 6.0 | 0.00 | 0.00 | 0.00 | 72 | 1003.9 |
| 20260505223011 | 63 | 74 | 2.0 | 4.0 | 0.00 | 0.00 | 0.00 | 71 | 1003.8 |
| 20260505222605 | 63 | 198 | 1.0 | 5.0 | 0.00 | 0.00 | 0.00 | 71 | 1003.9 |
| 20260505222051 | 63 | 256 | 2.0 | 7.0 | 0.00 | 0.00 | 0.00 | 72 | 1003.9 |
| 20260505221510 | 63 | 286 | 2.0 | 5.0 | 0.00 | 0.00 | 0.00 | 71 | 1003.9 |
| 20260505221059 | 62 | 82 | 1.0 | 4.0 | 0.00 | 0.00 | 0.00 | 72 | 1004.0 |
| 20260505220548 | 62 | 49 | 1.0 | 4.0 | 0.00 | 0.00 | 0.00 | 71 | 1004.1 |
| 20260505220016 | 62 | 21 | 1.0 | 4.0 | 0.00 | 0.00 | 0.00 | 70 | 1004.1 |
| 20260505215503 | 62 | 161 | 2.0 | 3.0 | 0.00 | 0.00 | 0.00 | 74 | 1004.0 |
| 20260505215053 | 62 | 313 | 0.0 | 2.0 | 0.00 | 0.00 | 0.00 | 72 | 1004.0 |
| 20260505214523 | 62 | 313 | 0.0 | 3.0 | 0.00 | 0.00 | 0.00 | 72 | 1004.2 |
| 20260505214002 | 62 | 313 | 2.0 | 5.0 | 0.00 | 0.00 | 0.00 | 73 | 1004.2 |
| 20260505213554 | 62 | 292 | 0.0 | 5.0 | 0.00 | 0.00 | 0.00 | 73 | 1004.2 |
| 20260505213018 | 62 | 299 | 3.0 | 6.0 | 0.00 | 0.00 | 0.00 | 74 | 1004.1 |
| 20260505212503 | 62 | 5 | 1.0 | 3.0 | 0.00 | 0.00 | 0.00 | 74 | 1004.2 |
| 20260505212053 | 62 | 19 | 1.0 | 5.0 | 0.00 | 0.00 | 0.00 | 74 | 1004.1 |
| 20260505211513 | 62 | 104 | 2.0 | 6.0 | 0.00 | 0.00 | 0.00 | 75 | 1004.2 |
| 20260505211002 | 62 | 31 | 2.0 | 4.0 | 0.00 | 0.00 | 0.00 | 74 | 1004.2 |
| 20260505210551 | 62 | 39 | 2.0 | 6.0 | 0.00 | 0.00 | 0.00 | 73 | 1004.2 |
| 20260505210010 | 61 | 41 | 2.0 | 6.0 | 0.00 | 0.00 | 0.00 | 74 | 1004.2 |
| 20260505205601 | 61 | 5 | 1.0 | 6.0 | 0.00 | 0.00 | 0.00 | 72 | 1004.3 |
| 20260505205050 | 61 | 355 | 3.0 | 6.0 | 0.00 | 0.00 | 0.00 | 73 | 1004.2 |
| 20260505204517 | 61 | 328 | 2.0 | 6.0 | 0.00 | 0.00 | 0.00 | 74 | 1004.3 |
| 20260505204002 | 61 | 328 | 1.0 | 3.0 | 0.00 | 0.00 | 0.00 | 74 | 1004.3 |
| 20260505203551 | 61 | 325 | 1.0 | 3.0 | 0.00 | 0.00 | 0.00 | 73 | 1004.3 |
| 20260505203012 | 61 | 338 | 2.0 | 4.0 | 0.00 | 0.00 | 0.00 | 72 | 1004.3 |
| 20260505202604 | 61 | 24 | 2.0 | 4.0 | 0.00 | 0.00 | 0.00 | 73 | 1004.4 |
| 20260505202050 | 61 | 32 | 1.0 | 3.0 | 0.00 | 0.00 | 0.00 | 73 | 1004.4 |
| 20260505201512 | 61 | 113 | 1.0 | 3.0 | 0.00 | 0.00 | 0.00 | 73 | 1004.5 |
| 20260505201100 | 61 | 185 | 1.0 | 3.0 | 0.00 | 0.00 | 0.00 | 74 | 1004.5 |
| 20260505200547 | 60 | 178 | 0.0 | 5.0 | 0.00 | 0.00 | 0.00 | 73 | 1004.6 |
| 20260505200004 | 60 | 229 | 3.0 | 6.0 | 0.00 | 0.00 | 0.00 | 73 | 1004.4 |
| 20260505195557 | 60 | 321 | 2.0 | 5.0 | 0.00 | 0.00 | 0.00 | 74 | 1004.5 |
| 20260505195043 | 60 | 296 | 1.0 | 5.0 | 0.00 | 0.00 | 0.00 | 73 | 1004.5 |
| 20260505194505 | 60 | 279 | 1.0 | 8.0 | 0.00 | 0.00 | 0.00 | 74 | 1004.5 |
| 20260505194056 | 60 | 226 | 1.0 | 5.0 | 0.00 | 0.00 | 0.00 | 74 | 1004.5 |
| 20260505193542 | 60 | 107 | 1.0 | 4.0 | 0.00 | 0.00 | 0.00 | 73 | 1004.5 |
| 20260505193002 | 60 | 169 | 0.0 | 2.0 | 0.00 | 0.00 | 0.00 | 74 | 1004.4 |
| 20260505192552 | 60 | 169 | 1.0 | 7.0 | 0.00 | 0.00 | 0.00 | 75 | 1004.5 |
| 20260505192041 | 60 | 168 | 3.0 | 7.0 | 0.00 | 0.00 | 0.00 | 74 | 1004.5 |
| 20260505191501 | 60 | 273 | 1.0 | 5.0 | 0.00 | 0.00 | 0.00 | 74 | 1004.5 |
| 20260505191052 | 60 | 269 | 2.0 | 4.0 | 0.00 | 0.00 | 0.00 | 73 | 1004.5 |
| 20260505190539 | 60 | 306 | 1.0 | 4.0 | 0.00 | 0.00 | 0.00 | 73 | 1004.5 |
| 20260505190100 | 60 | 309 | 1.0 | 6.0 | 0.00 | 0.00 | 0.00 | 73 | 1004.5 |
| 20260505185549 | 60 | 302 | 3.0 | 6.0 | 0.00 | 0.00 | 0.00 | 73 | 1004.4 |
| 20260505185037 | 60 | 219 | 1.0 | 5.0 | 0.00 | 0.00 | 0.00 | 74 | 1004.5 |
| 20260505184600 | 60 | 163 | 0.0 | 5.0 | 0.00 | 0.00 | 0.00 | 74 | 1004.5 |
| 20260505184049 | 60 | 174 | 1.0 | 3.0 | 0.00 | 0.00 | 0.00 | 76 | 1004.4 |
| 20260505183539 | 60 | 289 | 0.0 | 3.0 | 0.00 | 0.00 | 0.00 | 75 | 1004.4 |
| 20260505183107 | 60 | 289 | 0.0 | 3.0 | 0.00 | 0.00 | 0.00 | 74 | 1004.4 |
| 20260505182549 | 60 | 326 | 0.0 | 2.0 | 0.00 | 0.00 | 0.00 | 75 | 1004.4 |
| 20260505182040 | 59 | 221 | 0.0 | 5.0 | 0.00 | 0.00 | 0.00 | 75 | 1004.4 |
| 20260505181503 | 59 | 307 | 3.0 | 5.0 | 0.00 | 0.00 | 0.00 | 75 | 1004.3 |
| 20260505181053 | 59 | 236 | 0.0 | 4.0 | 0.00 | 0.00 | 0.00 | 74 | 1004.3 |
| 20260505180541 | 59 | 196 | 0.0 | 5.0 | 0.00 | 0.00 | 0.00 | 75 | 1004.3 |
| 20260505180105 | 59 | 201 | 1.0 | 5.0 | 0.00 | 0.00 | 0.00 | 76 | 1004.3 |
| 20260505175543 | 59 | 323 | 2.0 | 5.0 | 0.00 | 0.00 | 0.00 | 75 | 1004.2 |
| 20260505175032 | 59 | 273 | 2.0 | 4.0 | 0.00 | 0.00 | 0.00 | 77 | 1004.3 |
| 20260505174557 | 58 | 161 | 1.0 | 3.0 | 0.00 | 0.00 | 0.00 | 76 | 1004.2 |
| 20260505174035 | 58 | 178 | 0.0 | 3.0 | 0.00 | 0.00 | 0.00 | 78 | 1004.3 |
| 20260505173509 | 58 | 269 | 1.0 | 2.0 | 0.00 | 0.00 | 0.00 | 78 | 1004.2 |
| 20260505173014 | 57 | 136 | 0.0 | 2.0 | 0.00 | 0.00 | 0.00 | 79 | 1004.2 |
| 20260505172559 | 57 | 153 | 0.0 | 4.0 | 0.00 | 0.00 | 0.00 | 80 | 1004.3 |
| 20260505172050 | 57 | 169 | 1.0 | 5.0 | 0.00 | 0.00 | 0.00 | 80 | 1004.2 |
| 20260505171509 | 56 | 19 | 1.0 | 4.0 | 0.00 | 0.00 | 0.00 | 80 | 1004.1 |
| 20260505171059 | 56 | 242 | 2.0 | 5.0 | 0.00 | 0.00 | 0.00 | 81 | 1004.2 |
| 20260505170546 | 56 | 306 | 1.0 | 5.0 | 0.00 | 0.00 | 0.00 | 81 | 1004.1 |
| 20260505170101 | 56 | 276 | 1.0 | 5.0 | 0.00 | 0.00 | 0.00 | 81 | 1004.0 |
| 20260505165542 | 56 | 244 | 2.0 | 5.0 | 0.00 | 0.00 | 0.00 | 82 | 1004.0 |
| 20260505165030 | 55 | 286 | 0.0 | 4.0 | 0.00 | 0.00 | 0.00 | 82 | 1004.1 |
| 20260505164501 | 55 | 291 | 1.0 | 4.0 | 0.00 | 0.00 | 0.00 | 83 | 1004.0 |
| 20260505164051 | 55 | 295 | 1.0 | 5.0 | 0.00 | 0.00 | 0.00 | 83 | 1004.0 |
| 20260505163537 | 55 | 236 | 2.0 | 5.0 | 0.00 | 0.00 | 0.00 | 84 | 1004.0 |
| 20260505163015 | 55 | 334 | 2.0 | 8.0 | 0.00 | 0.00 | 0.00 | 84 | 1003.9 |
| 20260505162557 | 54 | 191 | 1.0 | 9.0 | 0.00 | 0.00 | 0.00 | 84 | 1003.9 |
| 20260505162045 | 54 | 257 | 2.0 | 9.0 | 0.00 | 0.00 | 0.00 | 85 | 1003.9 |
| 20260505161505 | 54 | 355 | 0.0 | 6.0 | 0.00 | 0.00 | 0.00 | 86 | 1003.9 |
| 20260505161041 | 54 | 310 | 2.0 | 8.0 | 0.00 | 0.00 | 0.00 | 86 | 1003.9 |
| 20260505160516 | 53 | 288 | 3.0 | 8.0 | 0.00 | 0.00 | 0.00 | 86 | 1003.9 |
| 20260505153010 | 53 | 154 | 0.0 | 2.0 | 0.00 | 0.00 | 0.00 | 89 | 1003.8 |
| 20260505152559 | 53 | 159 | 0.0 | 2.0 | 0.00 | 0.00 | 0.00 | 89 | 1003.8 |
| 20260505152047 | 53 | 171 | 0.0 | 0.0 | 0.00 | 0.00 | 0.00 | 89 | 1003.7 |
| 20260505151518 | 52 | 174 | 0.0 | 0.0 | 0.00 | 0.00 | 0.00 | 89 | 1003.8 |
| 20260505151007 | 52 | 174 | 0.0 | 0.0 | 0.00 | 0.00 | 0.00 | 89 | 1003.7 |
| 20260505150556 | 52 | 174 | 0.0 | 0.0 | 0.00 | 0.00 | 0.00 | 89 | 1003.7 |
| 20260505140548 | 51 | 175 | 0.0 | 0.0 | 0.00 | 0.00 | 0.00 | 89 | 1003.3 |
| 20260505124519 | 50 | 175 | 0.0 | 0.0 | 0.00 | 0.00 | 0.00 | 89 | 1002.9 |
| 20260505124102 | 50 | 175 | 0.0 | 0.0 | 0.00 | 0.00 | 0.00 | 89 | 1002.9 |
| 20260505123549 | 50 | 175 | 0.0 | 0.0 | 0.00 | 0.00 | 0.00 | 89 | 1002.9 |
| 20260505123007 | 50 | 175 | 0.0 | 0.0 | 0.00 | 0.00 | 0.00 | 89 | 1002.9 |
| 20260505122558 | 49 | 175 | 0.0 | 0.0 | 0.00 | 0.00 | 0.00 | 89 | 1002.9 |
| 20260505122046 | 49 | 175 | 0.0 | 0.0 | 0.00 | 0.00 | 0.00 | 88 | 1002.9 |
| 20260505121601 | 49 | 175 | 0.0 | 0.0 | 0.00 | 0.00 | 0.00 | 88 | 1002.9 |
| 20260505121048 | 49 | 175 | 0.0 | 0.0 | 0.00 | 0.00 | 0.00 | 88 | 1002.8 |
| 20260505120537 | 49 | 175 | 0.0 | 0.0 | 0.00 | 0.00 | 0.00 | 88 | 1002.8 |
| 20260505120058 | 49 | 175 | 0.0 | 0.0 | 0.00 | 0.00 | 0.00 | 88 | 1002.8 |
| 20260505115546 | 49 | 175 | 0.0 | 0.0 | 0.00 | 0.00 | 0.00 | 88 | 1002.7 |
| 20260505115035 | 49 | 175 | 0.0 | 0.0 | 0.00 | 0.00 | 0.00 | 88 | 1002.8 |
| 20260505114505 | 49 | 175 | 0.0 | 0.0 | 0.00 | 0.00 | 0.00 | 88 | 1002.7 |
| 20260505114056 | 49 | 175 | 0.0 | 0.0 | 0.00 | 0.00 | 0.00 | 88 | 1002.7 |
| 20260505113546 | 49 | 175 | 0.0 | 0.0 | 0.00 | 0.00 | 0.00 | 88 | 1002.8 |
| 20260505113005 | 49 | 175 | 0.0 | 0.0 | 0.00 | 0.00 | 0.00 | 87 | 1002.6 |
| 20260505112555 | 49 | 175 | 0.0 | 0.0 | 0.00 | 0.00 | 0.00 | 87 | 1002.6 |
| 20260505112043 | 49 | 175 | 0.0 | 0.0 | 0.00 | 0.00 | 0.00 | 87 | 1002.6 |
| 20260505111513 | 49 | 175 | 0.0 | 0.0 | 0.00 | 0.00 | 0.00 | 87 | 1002.6 |
| 20260505111056 | 49 | 175 | 0.0 | 0.0 | 0.00 | 0.00 | 0.00 | 87 | 1002.5 |
| 20260505110542 | 49 | 175 | 0.0 | 0.0 | 0.00 | 0.00 | 0.00 | 87 | 1002.6 |
| 20260505102040 | 50 | 175 | 0.0 | 0.0 | 0.00 | 0.00 | 0.00 | 86 | 1002.2 |
| 20260505101602 | 50 | 175 | 0.0 | 0.0 | 0.00 | 0.00 | 0.00 | 86 | 1002.2 |
| 20260505101051 | 50 | 175 | 0.0 | 0.0 | 0.00 | 0.00 | 0.00 | 86 | 1002.3 |
| 20260505100538 | 50 | 175 | 0.0 | 0.0 | 0.00 | 0.00 | 0.00 | 85 | 1002.3 |
| 20260505100005 | 50 | 175 | 0.0 | 0.0 | 0.00 | 0.00 | 0.00 | 85 | 1002.2 |
| 20260505095556 | 50 | 175 | 0.0 | 0.0 | 0.00 | 0.00 | 0.00 | 85 | 1002.1 |
| 20260505095046 | 50 | 175 | 0.0 | 0.0 | 0.00 | 0.00 | 0.00 | 85 | 1002.1 |
| 20260505094504 | 51 | 175 | 0.0 | 0.0 | 0.00 | 0.00 | 0.00 | 85 | 1002.1 |
| 20260505094055 | 51 | 175 | 0.0 | 0.0 | 0.00 | 0.00 | 0.00 | 85 | 1002.0 |
| 20260505093543 | 51 | 175 | 0.0 | 0.0 | 0.00 | 0.00 | 0.00 | 85 | 1002.0 |
| 20260505093013 | 51 | 175 | 0.0 | 0.0 | 0.00 | 0.00 | 0.00 | 85 | 1002.0 |
| 20260505092503 | 51 | 175 | 0.0 | 0.0 | 0.00 | 0.00 | 0.00 | 85 | 1001.9 |
| 20260505092052 | 51 | 175 | 0.0 | 0.0 | 0.00 | 0.00 | 0.00 | 85 | 1002.0 |
| 20260505091509 | 51 | 175 | 0.0 | 0.0 | 0.00 | 0.00 | 0.00 | 85 | 1001.8 |
| 20260505091102 | 52 | 175 | 0.0 | 0.0 | 0.00 | 0.00 | 0.00 | 84 | 1001.8 |
| 20260505090547 | 52 | 175 | 0.0 | 0.0 | 0.00 | 0.00 | 0.00 | 84 | 1001.7 |
| 20260505090014 | 52 | 175 | 0.0 | 0.0 | 0.00 | 0.00 | 0.00 | 84 | 1001.6 |
| 20260505085556 | 52 | 175 | 0.0 | 0.0 | 0.00 | 0.00 | 0.00 | 84 | 1001.6 |
| 20260505085043 | 52 | 175 | 0.0 | 0.0 | 0.00 | 0.00 | 0.00 | 84 | 1001.5 |
| 20260505084503 | 53 | 175 | 0.0 | 0.0 | 0.00 | 0.00 | 0.00 | 84 | 1001.5 |
| 20260505084053 | 53 | 175 | 0.0 | 0.0 | 0.00 | 0.00 | 0.00 | 84 | 1001.4 |
| 20260505083541 | 53 | 175 | 0.0 | 0.0 | 0.00 | 0.00 | 0.00 | 85 | 1001.5 |
| 20260505083008 | 53 | 175 | 0.0 | 0.0 | 0.00 | 0.00 | 0.00 | 85 | 1001.5 |
| 20260505082554 | 53 | 175 | 0.0 | 0.0 | 0.00 | 0.00 | 0.00 | 85 | 1001.6 |
| 20260505082041 | 53 | 175 | 0.0 | 0.0 | 0.00 | 0.00 | 0.00 | 84 | 1001.5 |
| 20260505081510 | 54 | 175 | 0.0 | 0.0 | 0.00 | 0.00 | 0.00 | 85 | 1001.4 |
| 20260505081101 | 54 | 175 | 0.0 | 0.0 | 0.00 | 0.00 | 0.00 | 84 | 1001.4 |
| 20260505080549 | 54 | 175 | 0.0 | 0.0 | 0.00 | 0.00 | 0.00 | 84 | 1001.2 |
| 20260505080005 | 54 | 175 | 0.0 | 0.0 | 0.00 | 0.00 | 0.00 | 84 | 1001.1 |
| 20260505075552 | 54 | 175 | 0.0 | 0.0 | 0.00 | 0.00 | 0.00 | 84 | 1001.2 |
| 20260505075042 | 54 | 175 | 0.0 | 0.0 | 0.00 | 0.00 | 0.00 | 84 | 1001.1 |
| 20260505074503 | 55 | 175 | 0.0 | 0.0 | 0.00 | 0.00 | 0.00 | 84 | 1001.1 |
| 20260505074054 | 55 | 175 | 0.0 | 0.0 | 0.00 | 0.00 | 0.00 | 84 | 1001.0 |
| 20260505073542 | 55 | 175 | 0.0 | 0.0 | 0.00 | 0.00 | 0.00 | 84 | 1001.0 |
| 20260505073001 | 55 | 175 | 0.0 | 0.0 | 0.00 | 0.00 | 0.00 | 84 | 1001.0 |
| 20260505072551 | 55 | 175 | 0.0 | 0.0 | 0.00 | 0.00 | 0.00 | 84 | 1000.9 |
| 20260505072040 | 55 | 175 | 0.0 | 0.0 | 0.00 | 0.00 | 0.00 | 84 | 1000.9 |
| 20260505071503 | 55 | 175 | 0.0 | 0.0 | 0.00 | 0.00 | 0.00 | 84 | 1000.7 |
| 20260505071051 | 56 | 175 | 0.0 | 0.0 | 0.00 | 0.00 | 0.00 | 84 | 1000.7 |
| 20260505070538 | 56 | 175 | 0.0 | 0.0 | 0.00 | 0.00 | 0.00 | 84 | 1000.6 |
| 20260505070104 | 56 | 175 | 0.0 | 0.0 | 0.00 | 0.00 | 0.00 | 85 | 1000.6 |
| 20260505065549 | 56 | 175 | 0.0 | 0.0 | 0.00 | 0.00 | 0.00 | 84 | 1000.5 |
| 20260505065038 | 56 | 175 | 0.0 | 0.0 | 0.00 | 0.00 | 0.00 | 84 | 1000.5 |
| 20260505064558 | 56 | 175 | 0.0 | 0.0 | 0.00 | 0.00 | 0.00 | 83 | 1000.4 |
| 20260505064047 | 56 | 175 | 0.0 | 0.0 | 0.00 | 0.00 | 0.00 | 83 | 1000.3 |
| 20260505063535 | 56 | 175 | 0.0 | 0.0 | 0.00 | 0.00 | 0.00 | 83 | 1000.2 |
| 20260505063007 | 57 | 175 | 0.0 | 0.0 | 0.00 | 0.00 | 0.00 | 83 | 1000.2 |
| 20260505062558 | 57 | 175 | 0.0 | 0.0 | 0.00 | 0.00 | 0.00 | 83 | 1000.1 |
| 20260505062047 | 57 | 175 | 0.0 | 0.0 | 0.00 | 0.00 | 0.00 | 83 | 1000.1 |
| 20260505061504 | 57 | 175 | 0.0 | 0.0 | 0.00 | 0.00 | 0.00 | 82 | 1000.2 |
| 20260505061055 | 57 | 175 | 0.0 | 0.0 | 0.00 | 0.00 | 0.00 | 82 | 1000.1 |
| 20260505060543 | 57 | 175 | 0.0 | 0.0 | 0.00 | 0.00 | 0.00 | 82 | 1000.0 |
| 20260505060032 | 57 | 175 | 0.0 | 0.0 | 0.00 | 0.00 | 0.00 | 82 | 1000.2 |
| 20260505055603 | 58 | 175 | 0.0 | 0.0 | 0.00 | 0.00 | 0.00 | 81 | 1000.1 |
| 20260505055051 | 58 | 175 | 0.0 | 0.0 | 0.00 | 0.00 | 0.00 | 81 | 1000.1 |
| 20260505054512 | 58 | 175 | 0.0 | 0.0 | 0.00 | 0.00 | 0.00 | 81 | 1000.0 |
| 20260505054102 | 58 | 175 | 0.0 | 0.0 | 0.00 | 0.00 | 0.00 | 80 | 1000.0 |
| 20260505053548 | 58 | 175 | 0.0 | 0.0 | 0.00 | 0.00 | 0.00 | 80 | 1000.1 |
| 20260505053101 | 58 | 175 | 0.0 | 0.0 | 0.00 | 0.00 | 0.00 | 80 | 1000.0 |
| 20260505052548 | 59 | 175 | 0.0 | 0.0 | 0.00 | 0.00 | 0.00 | 80 | 999.9 |
| 20260505052036 | 59 | 175 | 0.0 | 0.0 | 0.00 | 0.00 | 0.00 | 79 | 1000.0 |
| 20260505051608 | 59 | 175 | 0.0 | 0.0 | 0.00 | 0.00 | 0.00 | 79 | 999.9 |
| 20260505051048 | 59 | 175 | 0.0 | 0.0 | 0.00 | 0.00 | 0.00 | 78 | 999.8 |
| 20260505050537 | 59 | 175 | 0.0 | 0.0 | 0.00 | 0.00 | 0.00 | 78 | 999.8 |
| 20260505050105 | 60 | 175 | 0.0 | 0.0 | 0.00 | 0.00 | 0.00 | 78 | 999.7 |
| 20260505041508 | 62 | 175 | 0.0 | 0.0 | 0.00 | 0.00 | 0.00 | 73 | 999.0 |
| 20260505041056 | 63 | 175 | 0.0 | 0.0 | 0.00 | 0.00 | 0.00 | 73 | 999.0 |
| 20260505040544 | 63 | 175 | 0.0 | 0.0 | 0.00 | 0.00 | 0.00 | 73 | 998.9 |
| 20260505040003 | 63 | 175 | 0.0 | 0.0 | 0.00 | 0.00 | 0.00 | 72 | 998.7 |
| 20260505035552 | 64 | 175 | 0.0 | 0.0 | 0.00 | 0.00 | 0.00 | 72 | 998.7 |
| 20260505035041 | 64 | 175 | 0.0 | 0.0 | 0.00 | 0.00 | 0.00 | 71 | 998.6 |
| 20260505034512 | 64 | 175 | 0.0 | 0.0 | 0.00 | 0.00 | 0.00 | 71 | 998.5 |
| 20260505034102 | 65 | 175 | 0.0 | 0.0 | 0.00 | 0.00 | 0.00 | 71 | 998.4 |
| 20260505033551 | 65 | 175 | 0.0 | 0.0 | 0.00 | 0.00 | 0.00 | 71 | 998.4 |
| 20260505033013 | 65 | 175 | 0.0 | 0.0 | 0.00 | 0.00 | 0.00 | 70 | 998.3 |
| 20260505032601 | 66 | 175 | 0.0 | 0.0 | 0.00 | 0.00 | 0.00 | 70 | 998.3 |
| 20260505032052 | 66 | 175 | 0.0 | 0.0 | 0.00 | 0.00 | 0.00 | 70 | 998.2 |
| 20260505031601 | 66 | 175 | 0.0 | 0.0 | 0.00 | 0.00 | 0.00 | 70 | 998.1 |
| 20260505031047 | 66 | 175 | 0.0 | 0.0 | 0.00 | 0.00 | 0.00 | 69 | 998.0 |
| 20260505030538 | 67 | 175 | 0.0 | 0.0 | 0.00 | 0.00 | 0.00 | 70 | 998.0 |
| 20260505030057 | 67 | 175 | 0.0 | 0.0 | 0.00 | 0.00 | 0.00 | 70 | 998.0 |
| 20260505025545 | 67 | 175 | 0.0 | 0.0 | 0.00 | 0.00 | 0.00 | 69 | 997.9 |
| 20260505025034 | 67 | 175 | 0.0 | 3.0 | 0.00 | 0.00 | 0.00 | 68 | 997.9 |
| 20260505024506 | 68 | 175 | 0.0 | 4.0 | 0.00 | 0.00 | 0.00 | 68 | 997.9 |
| 20260505024053 | 68 | 184 | 0.0 | 4.0 | 0.00 | 0.00 | 0.00 | 68 | 997.8 |
| 20260505023543 | 68 | 51 | 0.0 | 6.0 | 0.00 | 0.00 | 0.00 | 66 | 997.8 |
| 20260505023011 | 69 | 195 | 1.0 | 6.0 | 0.00 | 0.00 | 0.00 | 66 | 997.8 |
| 20260505022554 | 69 | 182 | 0.0 | 6.0 | 0.00 | 0.00 | 0.00 | 65 | 997.7 |
| 20260505022042 | 69 | 302 | 1.0 | 8.0 | 0.00 | 0.00 | 0.00 | 65 | 997.8 |
| 20260505021515 | 69 | 173 | 3.0 | 8.0 | 0.00 | 0.00 | 0.00 | 65 | 997.7 |
| 20260505021103 | 69 | 240 | 0.0 | 6.0 | 0.00 | 0.00 | 0.00 | 65 | 997.7 |
| 20260505020550 | 70 | 142 | 1.0 | 10.0 | 0.00 | 0.00 | 0.00 | 64 | 997.8 |
| 20260505020008 | 70 | 229 | 4.0 | 10.0 | 0.00 | 0.00 | 0.00 | 64 | 997.7 |